This is the latest recevied weather packets stored in our database for station/object KG0HG. If no packets are shown the sender has not sent any weather packets the latest 10 day(s).
| Time | Temp. | Humidity | Pressure | Rain* | Wind** | Luminosity | Snow |
|---|---|---|---|---|---|---|---|
| 1777939174 | 26.67° C | 48% | 1001.4 hPa | 0 mm | - | 42 W/m² | - |
| 1777938871 | 26.67° C | 48% | 1001.5 hPa | 0 mm | - | 40 W/m² | - |
| 1777938567 | 26.67° C | 47% | 1001.4 hPa | 0 mm | - | 43 W/m² | - |
| 1777938265 | 26.67° C | 47% | 1001.4 hPa | 0 mm | - | 45 W/m² | - |
| 1777937961 | 26.67° C | 47% | 1001.6 hPa | 0 mm | - | 46 W/m² | - |
| 1777937657 | 26.67° C | 48% | 1001.5 hPa | 0 mm | - | 38 W/m² | - |
| 1777937354 | 27.22° C | 46% | 1001.4 hPa | 0 mm | - | 35 W/m² | - |
| 1777937051 | 27.22° C | 46% | 1001.4 hPa | 0 mm | - | 40 W/m² | - |
| 1777936748 | 27.22° C | 45% | 1001.5 hPa | 0 mm | - | 52 W/m² | - |
| 1777936444 | 27.22° C | 46% | 1001.6 hPa | 0 mm | - | 60 W/m² | - |
| 1777936141 | 27.78° C | 46% | 1001.6 hPa | 0 mm | - | 52 W/m² | - |
| 1777935838 | 27.22° C | 45% | 1001.4 hPa | 0 mm | - | 70 W/m² | - |
| 1777935537 | 27.22° C | 44% | 1001.6 hPa | 0 mm | - | 128 W/m² | - |
| 1777935233 | 27.22° C | 44% | 1001.6 hPa | 0 mm | - | 76 W/m² | - |
| 1777934931 | 27.22° C | 44% | 1001.6 hPa | 0 mm | - | 71 W/m² | - |
| 1777934627 | 26.67° C | 45% | 1001.7 hPa | 0 mm | - | 83 W/m² | - |
| 1777934324 | 26.67° C | 45% | 1001.5 hPa | 0 mm | - | 88 W/m² | - |
| 1777934019 | 26.67° C | 45% | 1001.7 hPa | 0 mm | - | 74 W/m² | - |
| 1777933716 | 26.67° C | 46% | 1001.7 hPa | 0 mm | - | 82 W/m² | - |
| 1777933413 | 26.67° C | 45% | 1001.8 hPa | 0 mm | - | 86 W/m² | - |
| 1777933112 | 26.67° C | 45% | 1001.9 hPa | 0 mm | - | 90 W/m² | - |
| 1777932808 | 26.67° C | 46% | 1001.8 hPa | 0 mm | - | 96 W/m² | - |
| 1777932505 | 26.67° C | 45% | 1001.6 hPa | 0 mm | - | 96 W/m² | - |
| 1777932202 | 26.67° C | 44% | 1002 hPa | 0 mm | - | 93 W/m² | - |
| 1777931899 | 26.67° C | 44% | 1001.8 hPa | 0 mm | - | 105 W/m² | - |
* Rain latest hour (hover to see other rain measurements)
** Current wind speed in m/s (hover to see current wind gust speed)